Theta_e
330 331 330 332 333 330 330 328 324 325 327 326 325 328 334 334 321 319 342 352 333 329 337 336 340 347 346 348 348 343 341 340 341 341 340 340 339 339 340 339 339 340 340 342 343 342 342 340 337 336 335 334 335 335 335 336 336 335 331 327 327 328 327 327 325 325 325 325 325 325 325 325 325 325 325 326 326 327 328 330 330 329 327 326 326 326 327
327 328 328 332 331 328 328 328 328 327 326 326 326 331 335 332 326 330 340 342 337 334 334 333 338 340 337 339 342 339 338 340 340 340 341 340 339 339 339 339 339 340 340 342 343 343 343 341 338 338 336 335 335 335 336 336 335 333 330 326 325 325 326 326 325 325 324 324 325 325 325 325 325 325 325 325 326 327 329 329 328 326 324 324 325 326 327
323 327 329 329 329 328 325 325 330 329 326 326 327 329 332 330 330 335 336 335 335 336 334 334 336 338 336 336 337 337 338 339 339 340 340 341 340 339 339 339 339 339 340 342 343 343 343 341 338 338 336 335 335 335 336 337 335 332 329 325 324 324 325 325 325 326 324 324 325 325 325 325 324 324 324 325 326 328 328 327 325 324 324 324 326 327 327
319 326 329 327 328 328 323 324 329 328 326 327 327 330 332 331 331 337 334 328 330 337 340 337 336 337 336 337 339 339 338 338 339 340 340 341 340 339 339 340 340 339 339 341 343 343 343 341 338 337 336 335 334 335 335 334 332 331 329 326 324 324 325 325 325 325 325 325 325 326 326 325 323 322 322 325 327 328 328 326 324 324 324 325 326 326 328
318 325 329 326 325 322 319 323 330 331 330 329 328 330 334 335 334 333 328 325 333 345 345 343 342 342 340 340 340 339 339 339 339 339 341 341 340 339 340 340 339 339 340 340 342 343 341 339 337 336 335 334 333 333 332 331 330 330 329 327 325 324 324 325 325 326 326 326 326 327 326 324 323 322 321 324 327 328 327 326 324 324 325 325 325 324 325
319 326 329 325 322 318 321 329 335 332 331 330 328 330 335 338 336 332 330 333 341 346 342 342 341 342 341 339 337 337 337 338 339 339 340 341 340 340 340 340 339 340 341 341 341 341 338 336 335 335 334 333 332 332 331 329 328 328 328 328 326 325 325 325 325 326 326 326 327 327 326 324 323 322 321 323 325 325 325 324 323 324 325 325 324 323 323
323 327 326 322 319 321 329 336 333 329 329 332 333 335 338 337 335 337 337 336 340 343 339 337 338 338 338 336 334 335 336 336 339 340 339 340 340 339 339 339 339 341 342 342 341 339 337 335 335 335 333 332 332 331 330 329 328 327 327 327 327 327 326 326 326 326 326 326 327 326 325 324 323 321 321 323 324 324 323 323 323 324 325 325 324 323 322
325 324 322 320 322 329 337 336 331 327 330 332 330 329 335 338 336 337 337 335 339 340 336 334 336 335 334 335 335 336 334 335 337 338 338 338 338 339 340 340 341 342 341 340 339 337 335 334 334 335 333 331 332 332 330 329 329 327 327 328 328 328 328 327 327 327 327 327 327 326 325 324 322 320 321 323 323 323 322 321 323 325 325 325 324 323 323
327 323 320 322 325 328 331 336 336 332 332 336 332 325 333 346 342 335 337 340 341 339 335 335 335 334 335 338 338 336 333 333 335 336 337 337 337 339 340 340 340 340 337 336 336 335 334 334 334 334 333 331 331 331 330 330 329 328 328 329 329 329 329 329 329 328 328 327 327 327 327 324 322 320 320 321 322 321 321 321 322 324 324 324 323 323 323
328 324 321 323 323 321 328 339 341 332 329 337 338 328 329 344 344 335 337 342 343 342 338 335 335 336 338 339 340 337 332 332 333 334 334 335 337 339 338 339 339 337 334 334 334 333 334 334 333 333 332 331 331 330 330 330 331 331 331 329 329 329 330 330 329 330 328 328 328 329 327 324 321 321 321 321 321 321 320 321 321 321 321 322 322 323 324
326 324 320 323 322 322 335 345 338 329 326 332 336 325 323 340 348 337 334 340 342 342 339 336 339 340 336 334 338 336 333 332 332 333 333 333 335 336 336 336 337 334 333 333 332 332 333 333 332 332 331 331 332 331 330 331 333 333 331 330 329 330 330 330 330 330 330 329 329 329 327 323 321 321 321 321 321 320 320 322 321 321 321 321 322 323 325
325 323 321 323 324 327 340 342 330 324 327 330 329 319 320 340 353 339 336 341 343 341 339 337 340 341 337 337 337 334 332 332 332 334 335 335 335 335 335 334 334 333 331 330 331 332 332 331 331 331 330 331 332 331 330 332 333 333 330 330 330 330 330 330 330 330 330 329 328 329 327 324 322 321 320 321 321 320 321 323 322 321 321 321 321 323 324
323 323 321 321 324 331 338 334 325 324 327 327 322 318 327 347 353 340 338 342 343 340 339 338 340 342 339 337 333 330 331 333 333 335 336 335 335 335 333 332 331 330 330 330 330 331 330 331 332 330 330 332 332 331 331 332 333 331 329 329 329 330 329 328 327 328 328 328 328 328 327 324 322 320 320 320 320 320 322 323 321 321 321 321 321 322 321
323 324 322 320 323 329 330 326 324 325 325 322 324 334 348 353 348 341 339 339 339 339 339 339 340 338 332 330 330 330 332 334 335 334 334 333 333 333 332 331 330 331 332 331 329 330 331 332 332 331 330 331 332 331 331 332 331 330 330 330 330 329 328 326 326 327 327 326 327 328 327 325 322 320 320 319 319 320 321 321 321 321 322 321 322 322 322
324 324 322 318 320 325 326 325 327 327 325 327 335 348 350 342 339 340 338 337 337 338 337 338 337 335 331 331 333 333 333 336 336 335 334 334 334 334 333 332 332 334 335 333 331 332 333 331 331 330 330 331 332 332 331 330 329 330 330 330 329 327 326 326 327 328 327 327 327 328 327 324 321 320 319 319 320 321 321 321 322 324 324 324 324 325 325
322 320 322 324 327 328 325 327 332 332 332 334 335 338 338 336 335 336 337 338 337 337 338 336 335 335 335 335 337 338 336 335 335 336 337 336 336 336 334 333 334 335 336 336 335 334 332 330 330 329 329 331 332 332 331 329 329 330 330 329 327 326 325 326 327 327 326 326 328 329 326 322 320 320 319 319 320 321 321 322 324 326 326 326 326 326 327
325 323 326 332 335 331 325 326 332 332 331 332 330 329 333 337 335 334 337 339 335 335 338 337 335 337 337 337 338 338 336 335 335 337 338 337 336 335 334 333 333 334 335 337 337 335 332 329 329 329 329 330 332 332 331 330 330 330 329 328 326 325 325 327 328 328 326 325 327 328 324 321 320 320 319 320 322 322 323 324 326 326 326 326 326 326 326
330 328 330 331 331 329 327 326 327 326 325 327 329 330 331 334 334 333 335 337 335 333 335 336 335 338 337 336 336 336 336 336 336 336 337 337 335 335 335 334 332 331 333 334 334 335 333 330 328 329 329 330 331 332 331 330 329 329 328 327 325 324 326 328 327 326 325 325 327 326 322 320 320 320 320 321 323 323 325 326 326 327 326 325 326 326 325
326 327 332 332 329 329 329 327 326 326 326 326 328 330 332 334 332 331 332 334 333 332 334 336 338 338 335 336 339 341 342 342 341 340 340 338 335 333 332 331 330 331 333 334 333 335 335 331 329 330 329 329 329 330 329 329 328 327 326 325 325 326 328 327 325 325 326 328 327 324 320 321 321 320 320 322 323 325 326 326 326 325 325 324 324 324 324
326 329 333 329 325 329 331 328 327 328 328 328 329 330 332 332 330 329 331 332 331 331 332 336 338 337 335 337 340 342 343 347 347 346 343 339 335 331 327 326 327 330 333 334 334 335 335 333 329 328 328 328 327 326 326 327 327 327 326 327 328 329 328 325 324 324 326 328 328 323 320 321 322 322 323 324 325 325 324 324 324 324 324 323 322 322 322
328 330 329 324 324 329 331 327 327 329 328 329 329 329 328 330 329 328 329 329 329 330 332 334 337 338 339 341 340 333 336 344 345 342 339 336 331 329 327 325 328 331 333 334 334 335 334 331 327 326 326 325 325 325 326 326 327 327 327 328 329 328 327 325 324 324 327 329 328 325 323 322 321 321 323 325 325 323 320 320 320 321 321 320 319 319 319
326 327 326 324 324 326 326 324 327 329 327 327 330 330 329 331 331 330 329 328 328 330 331 332 337 341 343 345 340 333 333 341 342 339 337 334 330 329 328 326 328 331 332 332 333 333 331 327 325 325 325 324 325 326 326 326 327 327 328 329 329 328 327 326 325 325 327 327 327 325 324 324 323 323 322 322 323 321 319 319 319 319 319 319 318 318 318
323 323 323 323 324 325 325 326 328 328 326 326 329 331 331 332 332 331 330 328 329 331 332 331 337 343 346 344 341 335 333 337 337 334 333 333 331 330 329 328 329 330 330 330 331 331 329 326 326 327 327 326 325 326 326 326 326 327 327 328 328 328 328 326 325 325 326 326 325 323 322 323 324 324 322 320 319 319 319 318 318 318 318 318 317 317 316
321 320 320 322 324 325 325 324 325 326 326 326 325 327 328 329 328 328 330 331 331 334 335 333 334 339 341 339 338 335 333 334 332 330 331 331 331 330 330 330 331 331 330 330 330 329 328 327 328 328 328 326 325 325 325 325 325 325 325 327 328 328 327 326 326 327 327 328 327 325 323 323 324 325 324 321 318 317 317 318 318 318 317 316 315 314 314
319 319 319 323 325 326 325 324 325 327 329 328 327 327 327 327 327 328 331 334 334 334 335 334 330 330 332 333 332 333 333 332 330 330 331 332 331 330 329 329 329 330 330 329 328 328 328 328 327 327 328 326 324 324 324 324 324 324 323 324 326 326 326 327 328 328 328 329 328 327 326 325 325 325 325 324 322 318 316 316 316 316 316 315 314 313 313
318 319 319 321 323 324 324 323 324 326 328 327 328 330 330 330 330 329 330 332 331 329 330 331 328 324 325 328 329 330 332 333 331 331 331 330 329 327 326 326 326 327 326 326 325 325 325 326 326 326 326 325 323 322 323 323 323 323 323 323 324 325 326 328 329 329 329 328 328 327 326 324 324 324 324 325 325 323 320 319 318 317 316 315 314 314 313
319 319 318 318 319 320 321 320 320 322 323 324 326 329 332 333 332 329 328 327 326 326 327 327 326 324 325 327 330 331 332 333 333 331 329 328 326 324 323 323 323 324 324 324 323 322 323 325 326 325 325 324 323 323 323 323 324 325 324 324 325 325 325 326 327 328 328 328 327 326 323 322 323 324 324 323 323 323 322 322 321 320 318 316 315 314 313
319 319 319 318 318 319 319 320 321 322 322 323 324 326 328 330 329 326 325 325 325 325 326 325 326 328 329 329 331 332 332 332 332 331 328 326 324 323 321 321 321 322 323 322 321 321 323 325 326 326 325 323 323 323 322 323 324 325 325 325 326 326 326 325 325 325 325 325 324 323 322 322 323 324 323 322 321 320 320 319 319 318 317 316 315 313 312
319 319 320 319 319 319 319 321 322 323 322 324 325 325 325 326 326 325 325 326 326 326 326 326 327 329 329 329 330 331 331 331 330 329 327 326 324 323 322 321 321 321 321 321 321 323 324 325 325 325 324 322 322 322 322 322 324 325 326 325 325 326 326 324 323 324 323 323 322 322 322 323 323 322 321 320 319 318 317 316 315 315 314 314 313 312 311
317 318 319 319 318 318 319 321 322 322 321 322 324 325 324 325 326 326 327 327 326 326 328 329 329 328 328 328 328 328 328 328 328 327 326 324 323 322 322 322 323 323 324 324 324 325 325 325 325 325 323 322 322 322 323 324 324 324 324 324 325 325 324 323 323 324 323 323 322 322 322 322 321 320 319 319 318 317 315 313 313 312 312 312 311 310 309
317 317 318 318 318 318 319 321 323 322 322 323 323 323 324 327 328 328 329 327 327 328 330 330 330 330 330 329 328 327 327 327 326 325 324 323 322 322 322 323 325 325 325 324 324 324 324 325 325 324 322 321 320 321 322 323 323 323 323 323 324 323 322 322 322 323 323 322 322 321 321 320 320 318 318 317 316 315 313 312 311 311 310 309 308 307 307
318 317 318 319 319 319 320 322 323 322 323 323 323 323 325 327 327 328 329 328 327 329 330 329 330 330 329 327 327 327 327 326 325 324 324 323 322 322 323 323 324 324 324 323 323 323 324 324 323 321 319 317 318 319 320 322 322 323 323 323 323 323 322 321 322 322 322 321 321 319 319 319 318 317 317 316 315 314 313 311 310 309 309 307 306 305 304
319 320 320 321 321 320 321 323 323 323 323 323 324 323 325 325 326 327 329 328 328 329 329 329 329 328 326 325 326 327 326 325 324 324 323 323 322 322 322 322 322 322 322 321 321 321 321 322 321 320 317 316 317 318 319 321 322 322 322 322 322 322 321 321 320 320 320 319 318 317 317 317 316 316 316 315 314 313 312 311 310 308 307 306 305 303 303
320 320 320 320 320 321 321 321 321 322 322 323 323 323 323 324 326 328 328 329 327 327 327 328 327 326 326 326 327 326 326 326 324 323 322 322 321 321 320 320 319 319 319 319 319 319 319 320 321 320 319 319 319 320 320 321 321 321 322 321 321 320 319 318 318 318 317 316 316 316 316 315 315 315 314 314 313 312 311 310 309 307 306 306 304 303 302
321 320 320 320 319 319 319 319 319 320 321 321 322 322 323 325 327 327 328 328 327 326 325 325 325 325 326 326 326 326 326 325 324 322 321 321 320 319 319 318 318 318 318 317 317 318 318 319 320 320 319 319 319 320 321 321 321 320 320 319 318 318 317 316 316 316 315 315 314 314 314 314 313 313 312 312 312 311 310 309 308 306 306 305 304 303 302
322 321 320 321 320 320 319 319 319 319 320 322 323 322 322 325 327 327 326 325 324 324 323 324 324 325 325 326 325 325 324 323 322 321 321 319 319 319 318 318 318 319 318 318 317 317 318 319 319 319 318 318 319 319 319 319 319 319 318 317 316 316 315 315 314 314 313 313 313 312 312 311 311 310 310 310 309 309 308 307 306 306 305 304 304 303 302
322 321 321 321 321 321 320 320 320 321 322 324 324 323 323 325 327 327 325 323 322 322 322 323 324 324 324 323 323 323 322 322 321 320 319 319 318 318 318 318 318 319 319 318 317 317 318 318 317 317 317 318 318 317 317 318 319 318 317 316 314 312 312 311 311 311 311 311 310 310 309 309 308 308 307 307 307 307 306 306 305 304 303 303 303 303 303
322 321 321 321 321 320 320 320 321 322 323 323 324 324 325 326 326 324 322 321 322 322 322 322 322 323 322 321 321 322 321 321 320 319 318 318 318 318 318 317 317 317 317 317 316 316 317 316 315 316 316 316 315 315 315 316 317 316 315 313 311 309 309 309 309 308 308 308 308 308 308 307 307 306 305 305 305 305 304 304 303 303 302 301 301 301 301
320 321 321 322 321 321 321 322 322 322 322 323 325 326 326 325 324 322 321 321 321 321 321 321 321 321 321 321 321 321 320 320 319 318 317 316 316 316 316 316 315 315 315 315 315 316 315 314 314 314 314 314 314 313 312 312 312 311 310 309 308 307 307 308 307 307 307 307 307 307 306 306 305 305 304 304 303 303 302 302 302 301 301 300 300 299 299
320 320 321 320 320 321 322 321 321 322 322 323 324 325 324 321 320 320 320 320 319 319 319 320 320 320 320 320 320 319 319 318 318 316 315 315 315 315 316 315 314 314 315 315 315 314 313 313 313 313 313 312 312 311 310 308 308 308 308 308 308 307 307 307 307 306 306 306 306 305 305 305 304 304 303 302 302 301 301 301 300 300 300 299 299 299 298
321 321 321 320 320 321 320 320 320 320 320 320 321 321 320 320 320 321 321 320 318 317 319 321 321 320 319 319 318 318 318 317 315 314 314 315 315 315 315 315 314 314 314 315 314 313 312 311 311 311 311 310 309 308 306 306 306 307 307 308 307 307 307 306 306 306 305 304 304 303 303 303 302 302 302 301 301 300 300 300 299 299 299 299 298 298 298
322 322 321 320 320 321 320 320 320 320 319 318 318 318 319 320 321 321 321 319 318 318 319 320 320 319 318 318 317 317 316 315 313 313 314 314 315 315 315 314 314 314 314 313 313 312 311 310 309 309 309 308 307 305 305 305 306 306 307 307 307 307 307 306 305 305 304 303 302 302 301 301 301 301 301 300 300 300 299 299 299 299 298 298 298 297 297
322 323 322 322 322 322 322 322 322 322 321 319 317 317 317 317 318 318 318 318 318 319 320 319 319 318 317 317 317 316 315 314 313 313 313 313 313 314 314 313 313 313 311 310 310 310 310 310 310 308 307 306 305 304 304 305 306 306 306 306 306 306 305 305 304 303 302 302 301 301 300 300 300 300 300 300 300 299 299 299 298 298 297 297 297 296 296
323 323 323 323 323 322 322 322 322 323 322 319 316 315 316 317 316 317 318 319 319 320 320 319 318 318 317 317 317 316 315 313 313 312 312 312 312 312 312 313 313 311 309 309 310 310 309 310 309 306 304 303 303 302 303 304 304 304 305 305 305 305 304 303 303 302 302 301 300 300 299 299 299 299 299 299 299 298 298 298 298 297 296 296 296 295 295
323 323 323 322 322 321 321 321 322 321 320 317 316 316 318 318 318 319 319 320 320 319 319 318 318 318 317 317 317 316 315 313 312 312 313 313 312 312 312 313 313 310 308 308 309 310 309 308 306 304 303 302 301 301 302 303 303 303 303 304 304 304 303 303 302 302 301 301 300 300 299 299 298 298 298 298 298 298 298 297 296 296 296 295 295 295 294
322 322 323 322 321 320 320 320 320 319 318 318 318 318 318 318 319 319 320 320 320 319 318 318 317 318 317 317 316 315 313 312 312 312 312 313 312 312 312 312 311 309 306 306 308 309 308 305 303 303 302 302 301 301 302 302 301 301 302 302 302 302 302 302 302 301 300 300 300 299 299 298 298 298 297 297 297 297 296 296 296 295 295 295 294 294 294
321 321 321 321 320 320 319 319 320 320 320 320 320 319 318 318 319 319 319 319 319 318 318 317 317 317 317 316 315 313 312 312 312 311 311 311 311 310 310 310 310 307 305 306 308 308 306 304 302 302 302 301 301 301 301 301 300 300 300 300 301 301 301 301 301 300 300 300 299 298 298 297 297 297 297 297 296 296 296 295 295 294 294 294 294 294 293
320 320 320 320 320 319 319 320 320 321 321 321 320 319 318 318 318 318 318 318 318 318 318 317 317 317 316 315 314 313 313 313 314 313 312 311 311 310 310 311 310 308 305 306 307 306 304 303 302 302 301 301 300 300 300 300 299 299 299 299 299 300 300 300 300 299 299 299 298 298 297 297 297 296 296 296 296 295 295 295 294 294 294 294 294 293 293
319 319 319 320 320 320 320 321 322 322 321 320 319 318 318 317 318 317 317 317 318 318 318 317 317 316 315 314 314 314 313 313 314 314 312 311 311 311 311 311 310 308 306 307 308 307 305 303 302 302 301 301 300 300 299 299 299 299 299 299 299 299 299 299 299 298 298 298 297 297 297 296 296 296 295 295 295 295 294 294 294 294 293 293 293 293 292
319 320 320 321 321 322 322 322 322 322 320 319 318 317 317 317 318 318 317 317 318 318 318 317 317 316 315 314 314 314 313 312 312 312 311 310 310 310 310 311 310 309 308 307 308 308 306 304 302 301 301 300 300 299 299 299 299 299 298 298 298 298 297 297 296 296 297 297 296 296 296 295 295 295 295 294 294 294 294 293 293 293 292 292 293 293 292
319 320 321 321 321 321 320 320 320 321 320 319 318 317 317 318 318 318 317 317 318 318 317 317 316 315 314 313 313 312 312 311 311 311 310 310 309 309 310 310 310 309 308 307 307 308 307 305 304 303 301 300 300 300 299 299 299 298 298 298 298 297 297 296 296 296 296 296 296 295 295 295 295 294 294 294 294 294 293 293 293 292 292 292 293 292 292
316 317 317 318 318 319 318 318 318 318 319 319 318 318 318 318 318 318 317 317 317 317 317 317 316 314 312 312 312 311 311 311 311 311 310 310 309 309 309 308 308 308 307 306 306 307 306 305 304 303 301 300 300 300 299 298 298 298 298 298 298 297 297 297 297 296 296 296 295 295 295 295 295 294 294 294 294 294 293 293 293 293 292 292 292 292 292
Wind_Speed
2 2 1 0 1 2 4 7 9 8 7 9 9 4 4 6 5 5 1 6 7 7 5 8 7 4 5 6 6 7 7 8 9 10 11 12 12 12 12 11 11 10 10 9 10 12 13 15 17 18 19 20 20 20 20 19 17 16 14 13 14 15 15 15 14 13 12 13 13 13 13 13 14 14 14 15 15 15 14 15 16 16 16 16 18 19 19
4 2 0 0 2 4 4 4 6 7 7 7 6 3 4 6 6 5 1 5 10 8 7 11 8 2 4 5 3 5 8 9 10 12 13 13 14 14 13 12 11 10 10 10 11 12 12 14 17 17 18 20 21 21 20 19 18 16 14 14 14 15 16 15 14 13 13 13 13 12 12 13 13 13 14 15 15 15 15 15 16 15 15 16 17 18 19
3 2 2 3 3 4 5 4 2 3 4 4 3 2 3 4 4 4 3 5 9 6 6 10 8 2 3 6 6 7 8 9 11 12 13 13 13 13 14 13 11 10 9 9 11 12 14 16 18 19 20 21 22 21 20 19 18 15 13 14 15 15 16 15 14 14 13 13 12 12 12 13 12 13 14 15 15 15 15 15 15 15 15 17 17 18 18
2 2 3 4 4 4 4 3 5 6 5 4 3 2 3 4 4 4 3 5 7 3 3 5 6 4 6 8 7 6 6 9 11 13 13 14 14 14 13 12 11 11 11 10 12 13 15 18 21 22 22 22 23 23 21 19 17 14 14 15 16 16 16 15 15 14 13 12 12 12 12 12 12 13 15 15 15 14 14 14 15 15 16 16 17 17 17
3 2 2 4 4 3 3 3 6 9 7 5 3 2 5 6 5 4 5 5 5 2 1 3 5 4 6 7 5 5 6 9 11 12 13 13 14 13 13 13 12 12 12 12 14 16 18 21 24 25 25 24 24 23 21 18 14 14 15 16 17 17 17 16 15 15 14 12 12 12 12 12 12 14 15 15 15 14 14 14 15 15 16 15 15 15 16
3 2 2 3 4 6 3 1 1 4 7 9 7 5 6 7 6 3 4 4 4 4 4 6 6 5 4 4 4 4 6 8 9 12 12 12 12 13 12 13 12 11 11 12 14 17 22 25 26 26 25 24 24 22 19 16 14 13 15 17 18 19 18 17 16 15 15 14 13 13 12 11 12 14 15 15 14 13 13 14 15 16 16 14 13 14 15
2 3 3 4 6 4 1 2 0 1 2 5 5 3 4 7 7 6 6 8 8 7 6 5 5 5 4 5 5 6 7 9 9 10 11 11 12 12 12 12 11 10 11 11 12 17 24 26 25 25 25 25 25 23 19 16 15 14 15 17 19 19 19 19 18 17 17 15 14 12 11 11 13 14 15 15 14 13 13 13 15 16 16 14 13 13 14
2 4 5 4 2 1 1 1 2 3 3 4 1 5 6 7 8 8 8 11 9 6 5 4 4 4 4 4 5 6 7 9 9 10 11 12 13 13 12 12 12 13 16 18 20 23 25 25 24 25 26 26 25 23 20 18 17 16 16 17 18 20 19 19 18 17 16 14 13 11 11 11 12 13 14 14 13 12 12 13 14 15 14 13 13 14 14
1 3 4 2 2 2 2 2 3 3 2 3 3 5 5 5 6 7 8 9 7 4 3 2 3 2 2 3 3 5 7 8 9 9 9 11 12 11 12 13 14 19 23 24 25 25 24 24 25 27 27 27 26 23 21 19 18 17 17 18 19 20 19 17 16 15 14 12 11 11 10 11 12 12 13 12 12 11 11 12 13 14 14 15 15 15 15
1 2 2 2 3 3 4 5 3 2 1 3 4 3 4 4 6 8 8 8 5 3 2 3 3 3 2 2 2 4 7 8 9 8 7 8 8 9 10 11 12 17 22 22 22 22 22 23 26 27 28 27 25 23 21 20 18 16 16 18 20 20 19 17 16 14 13 12 11 10 10 11 12 12 12 12 10 10 11 12 13 14 15 16 17 16 15
3 3 3 4 5 3 3 5 1 2 1 4 5 3 6 4 5 8 9 7 5 5 5 5 5 3 4 3 1 4 7 8 9 8 7 7 8 9 11 12 14 18 20 20 20 20 22 24 26 27 27 27 24 22 21 20 17 15 17 20 21 20 19 17 15 14 13 12 12 11 11 11 12 12 12 10 9 9 10 11 13 15 16 17 17 16 15
4 5 4 3 3 2 3 4 1 3 3 5 4 5 6 2 4 7 9 8 7 7 6 6 5 4 3 2 2 3 7 8 8 9 9 8 9 10 11 13 16 18 18 19 19 21 25 29 27 25 25 24 22 22 21 19 17 17 19 21 20 18 16 14 12 12 13 13 12 12 11 11 12 11 10 9 8 9 10 10 12 15 15 16 16 15 14
4 5 4 2 2 2 3 3 2 4 4 4 5 6 3 1 4 6 8 8 7 8 8 7 5 3 1 1 2 4 8 7 7 8 8 8 8 9 11 13 16 17 18 20 23 26 29 28 24 22 23 22 22 22 21 19 20 22 21 20 18 16 13 11 10 11 12 13 13 12 11 11 11 10 8 7 8 10 10 10 12 14 15 15 15 15 15
2 3 3 2 2 1 1 2 4 3 4 4 4 3 1 1 4 6 7 7 7 9 9 6 4 2 2 2 3 5 7 7 6 6 7 6 7 8 9 13 17 18 17 20 25 27 25 22 19 19 21 22 21 20 20 21 24 24 22 19 16 12 10 10 10 11 12 14 14 13 12 12 11 9 7 7 9 10 10 10 12 14 15 15 15 15 15
1 1 2 2 2 0 3 5 4 2 4 2 1 1 1 2 3 5 6 6 7 9 9 6 4 4 4 3 3 4 5 5 5 6 7 7 8 10 11 13 15 15 14 18 22 18 14 14 15 16 19 21 20 19 20 24 25 23 20 18 13 10 9 10 11 12 13 14 15 14 12 11 10 8 7 7 9 9 9 10 11 12 13 14 14 13 14
2 2 3 2 1 1 2 3 3 3 3 1 3 2 2 2 3 4 5 6 7 9 9 9 7 5 4 3 3 4 4 4 4 5 6 7 7 9 10 9 8 9 11 13 12 8 7 10 13 15 18 20 18 19 22 24 22 20 18 15 11 10 10 11 12 14 14 14 15 14 11 10 9 8 7 8 8 8 9 9 10 10 11 11 12 12 12
2 2 2 1 1 0 3 4 4 6 7 4 3 4 5 4 3 4 4 5 7 7 8 9 7 5 4 4 3 4 4 4 4 3 3 4 4 4 5 5 3 5 8 9 7 7 9 11 11 14 18 19 17 19 21 21 18 17 16 13 11 10 10 11 14 15 15 15 14 13 10 9 9 8 7 7 8 8 8 8 8 8 10 10 10 11 11
2 3 3 2 3 4 5 5 6 8 10 6 4 5 6 5 4 4 4 4 6 7 7 7 6 4 4 5 4 3 3 3 3 2 1 2 2 3 4 4 4 5 7 7 8 8 9 11 12 15 18 18 17 18 18 16 15 15 14 12 11 10 10 11 14 15 16 15 13 12 11 10 10 8 8 7 7 7 6 6 6 6 8 9 9 10 11
1 2 1 2 6 7 7 7 6 7 8 6 4 5 5 4 3 3 3 3 6 7 7 7 5 4 5 5 4 3 2 2 2 2 1 1 2 3 5 5 6 6 6 8 10 10 10 12 14 15 16 17 17 16 15 13 13 13 12 10 9 9 9 10 12 14 15 14 12 12 12 12 10 9 8 7 5 4 3 4 4 5 6 7 8 9 10
2 1 2 7 10 8 6 6 5 5 5 4 4 3 2 2 2 2 2 4 6 7 6 6 6 5 5 5 4 3 2 2 2 1 1 2 2 4 6 7 7 7 8 9 11 10 9 9 11 12 13 14 14 13 12 11 11 11 10 10 9 8 7 7 8 11 13 12 11 13 14 13 11 9 8 5 2 1 1 2 3 3 4 5 6 8 9
3 1 4 11 11 5 3 5 5 4 4 3 1 1 2 4 5 4 4 4 5 6 6 6 6 6 4 3 4 4 3 2 1 2 1 2 3 4 5 6 7 7 8 9 9 7 5 6 8 10 10 9 8 8 9 9 10 9 9 8 7 5 4 4 6 7 8 8 10 11 12 12 12 10 7 3 3 3 2 0 1 2 3 4 6 7 7
1 1 5 8 7 5 7 9 8 5 4 3 2 3 4 5 6 6 7 5 3 3 4 5 6 6 4 3 4 4 3 2 2 2 1 1 3 3 4 4 4 5 5 5 5 4 3 4 5 5 5 6 6 6 7 8 9 9 8 6 5 4 3 3 3 4 4 6 8 10 11 12 10 7 4 3 4 5 4 3 2 3 4 6 8 9 6
3 3 5 4 2 6 9 10 9 6 4 4 3 1 2 3 5 6 8 7 5 3 2 2 3 5 6 5 5 4 3 2 2 1 1 0 1 1 1 1 2 2 3 2 2 2 2 3 3 3 3 4 5 6 7 8 8 8 7 5 4 3 2 2 3 3 3 5 7 9 12 13 9 6 7 8 7 6 6 5 5 5 7 8 10 11 10
4 4 6 3 3 6 9 11 12 7 3 3 5 5 3 0 2 3 5 6 7 6 4 2 1 2 5 5 4 4 4 3 2 3 2 2 2 2 2 2 1 1 1 1 1 1 2 2 3 3 4 5 6 7 8 8 7 6 5 4 3 2 3 4 5 4 3 4 5 7 9 9 7 7 9 11 12 11 9 9 8 8 9 9 10 11 12
4 4 5 4 5 6 8 9 9 6 3 2 3 3 2 2 2 2 2 3 4 5 6 5 2 2 4 5 3 3 4 4 4 5 5 5 4 4 4 3 2 1 1 1 1 1 2 3 4 4 5 6 7 8 8 8 7 7 6 6 5 6 6 6 5 4 4 4 3 3 4 5 5 6 6 7 9 10 11 11 10 9 9 9 10 11 12
5 5 7 8 7 6 5 5 6 5 3 3 4 4 4 5 4 3 2 3 3 3 5 6 5 5 6 6 5 4 4 5 5 5 5 5 5 5 4 3 2 2 2 2 2 3 3 4 5 5 6 6 6 6 6 6 6 6 7 8 8 7 7 6 5 5 5 5 4 4 5 6 7 6 5 4 5 8 10 8 6 5 6 7 8 10 11
6 4 6 9 9 7 5 5 7 9 9 7 7 7 4 4 4 3 2 2 2 2 3 6 8 8 7 6 5 4 5 5 5 5 4 4 4 4 3 3 3 2 2 2 2 2 2 3 4 4 4 4 3 2 2 2 3 4 5 5 5 5 4 3 3 4 5 5 6 7 8 8 8 8 7 6 6 6 6 6 4 2 2 4 6 8 10
6 4 4 6 9 9 9 8 8 9 10 8 7 7 5 3 4 4 4 4 4 3 3 5 7 7 6 5 4 4 4 4 4 4 4 4 4 3 3 3 2 2 2 1 1 2 2 3 3 3 3 3 3 3 2 1 2 3 4 4 3 3 3 3 3 3 4 6 8 9 11 11 11 10 9 8 7 6 5 4 3 2 2 3 4 6 8
6 5 5 6 8 9 9 8 7 8 10 9 6 5 6 6 6 7 6 6 5 5 5 5 6 5 5 5 4 4 3 3 4 4 4 4 3 3 2 2 2 2 2 2 2 3 3 4 4 3 3 3 3 3 2 2 3 3 3 3 3 2 2 3 3 4 6 7 8 10 11 12 12 12 11 10 9 8 6 6 5 4 4 5 5 6 8
8 7 6 7 7 8 8 8 8 9 11 9 7 6 8 9 9 8 6 6 6 6 6 6 5 5 5 5 5 4 4 4 4 4 4 4 3 3 2 2 2 2 2 2 2 2 2 3 3 2 2 2 2 2 2 3 3 3 3 3 3 3 2 3 4 4 5 6 8 9 11 12 12 11 12 11 10 9 8 6 6 6 6 6 7 8 10
12 12 11 9 8 9 10 9 8 9 9 8 8 9 9 9 9 8 7 6 7 6 6 6 6 5 5 5 5 5 5 5 5 5 5 4 3 3 2 1 1 2 2 3 2 2 2 2 1 1 0 1 3 3 3 3 3 3 3 3 3 2 1 4 5 5 6 7 9 10 11 12 12 12 12 11 10 8 7 7 7 7 7 7 9 9 10
12 14 13 11 9 10 11 9 7 9 10 7 8 9 10 10 11 11 10 8 8 8 7 6 5 5 5 6 6 6 6 6 6 5 5 5 4 4 4 4 3 4 4 4 3 2 2 2 2 2 3 4 5 5 4 3 3 3 2 1 1 3 5 7 8 8 9 10 11 12 12 12 12 13 12 10 9 8 7 7 7 7 7 8 8 9 9
10 10 10 10 10 10 10 9 8 10 10 8 8 9 9 9 10 9 8 7 7 6 6 4 4 5 6 7 7 7 7 7 6 6 6 6 6 5 5 5 6 6 5 4 3 3 3 3 3 4 5 6 6 6 4 2 2 2 1 2 4 7 9 10 10 10 10 11 13 14 14 13 12 12 11 9 8 7 6 6 6 7 7 8 8 8 9
10 10 11 12 12 12 13 12 10 10 10 9 8 7 7 8 7 5 6 7 7 6 6 6 6 6 7 7 7 7 7 6 5 5 6 6 6 6 6 7 7 7 6 6 5 5 5 5 5 5 5 6 6 5 2 1 2 2 3 5 7 8 9 9 9 10 11 12 12 12 12 12 11 10 9 8 7 6 6 6 6 6 7 7 8 8 9
10 12 13 14 15 16 16 14 12 12 11 9 8 7 6 6 5 5 7 7 7 8 9 9 8 8 8 7 6 6 6 6 6 6 7 6 6 6 6 7 7 6 6 6 6 6 6 6 6 5 6 6 6 4 2 3 4 5 6 7 8 8 8 8 9 10 10 10 10 9 9 10 10 8 8 7 6 6 6 6 6 6 6 7 7 7 9
11 11 11 12 14 16 16 14 12 12 11 8 6 5 5 6 8 9 10 9 9 10 10 9 8 8 8 7 6 7 7 7 8 7 7 7 6 6 5 5 5 4 4 5 7 7 6 6 5 5 5 6 6 5 5 5 6 7 8 8 8 9 8 8 9 9 9 9 9 9 9 9 9 8 7 7 6 6 6 6 6 6 6 6 6 7 7
12 11 10 11 12 14 14 13 12 10 8 6 6 7 9 10 10 10 10 9 10 11 10 9 8 9 8 7 8 9 8 7 8 8 7 7 6 5 5 5 4 3 3 4 6 6 6 5 5 5 5 5 5 5 5 6 7 8 9 10 11 11 10 9 9 9 9 9 9 9 8 8 8 8 7 6 6 6 6 6 6 6 6 6 6 7 7
13 11 11 11 13 13 13 12 10 9 9 9 10 11 13 13 12 11 11 10 8 8 10 11 11 10 9 9 9 9 8 8 9 9 8 6 5 5 5 4 3 3 3 3 4 4 4 4 4 5 5 6 7 7 7 8 10 11 13 14 16 15 13 10 9 9 9 8 8 8 7 7 8 7 7 6 6 6 6 6 6 7 7 7 8 8 7
10 10 9 10 10 9 8 6 6 7 7 7 9 10 11 11 11 12 13 12 9 9 11 12 10 9 10 10 9 8 8 9 9 9 8 6 6 6 6 5 4 4 4 4 4 4 4 3 4 6 7 7 8 9 10 12 13 14 14 14 14 13 11 10 9 9 9 8 8 8 7 7 8 8 7 7 7 8 8 8 8 8 8 8 9 9 9
7 7 6 5 4 2 1 3 5 7 8 8 5 5 10 15 17 16 13 11 10 11 11 9 9 9 10 9 9 9 9 9 9 9 9 8 7 7 6 5 5 5 5 5 5 5 4 5 6 7 8 8 8 9 11 12 12 12 11 10 10 10 9 9 9 9 8 8 8 8 8 8 8 8 8 8 8 9 9 9 9 9 8 8 8 8 8
6 5 3 2 3 6 7 9 11 15 18 19 16 11 8 10 15 16 13 12 13 13 11 9 8 9 9 9 10 10 10 10 10 10 10 8 7 6 5 5 5 5 5 6 6 6 6 7 8 8 9 9 9 10 10 10 9 9 8 8 7 7 7 7 7 7 7 8 8 8 8 8 8 8 8 8 8 8 8 8 8 8 8 8 8 8 7
6 4 2 3 5 8 10 11 12 14 18 20 18 11 4 4 8 10 11 12 13 11 9 7 8 10 11 11 11 11 10 9 9 9 7 6 5 5 5 6 6 6 6 6 7 6 7 7 8 9 9 9 9 9 8 8 7 6 6 6 6 6 6 6 7 7 7 8 8 8 8 8 8 8 8 8 8 8 8 8 7 7 7 7 7 6 6
6 4 4 4 5 7 9 10 12 12 15 18 19 13 7 7 9 9 9 11 11 10 9 9 10 11 12 13 13 12 10 9 9 8 6 4 4 4 6 8 8 6 6 7 7 7 7 7 8 8 9 9 8 7 7 6 5 4 4 4 5 5 6 6 7 7 7 8 9 9 8 8 8 8 7 7 7 7 7 7 7 6 6 6 6 5 5
4 4 4 5 6 7 8 9 9 9 10 13 15 11 8 8 10 9 8 8 10 10 10 11 11 12 12 13 13 12 11 10 10 9 8 6 5 5 7 8 8 8 8 8 8 7 7 7 7 7 7 7 6 6 6 5 4 3 3 3 4 5 6 6 7 7 7 8 8 8 8 7 7 7 6 6 6 6 6 6 6 6 5 5 5 4 4
1 2 4 6 8 8 8 6 5 6 8 11 12 9 7 7 9 9 8 8 9 9 10 10 11 11 12 12 12 11 11 11 11 11 9 7 6 6 7 8 8 8 9 9 8 7 7 7 7 6 5 5 5 5 5 4 3 2 2 2 3 4 5 5 6 6 7 7 7 7 7 6 6 6 6 5 5 5 5 5 5 5 4 4 4 4 3
2 3 4 5 6 7 7 6 5 8 11 11 9 6 5 5 6 7 7 8 8 8 8 9 10 11 12 12 12 11 10 10 10 9 7 6 7 10 11 10 9 9 9 8 8 7 7 7 6 5 4 3 4 4 4 3 3 2 2 2 2 3 4 5 5 6 6 6 6 6 6 5 5 5 5 5 5 4 5 5 4 4 4 4 4 4 4
3 3 3 3 4 5 6 6 6 7 8 7 5 5 5 5 6 6 6 7 7 7 7 8 10 10 11 12 13 13 13 11 9 7 5 5 9 12 13 11 10 10 9 8 8 9 8 8 7 5 4 3 3 3 3 3 3 2 2 2 2 3 4 5 5 5 5 5 6 6 5 5 5 4 5 5 4 4 4 4 4 4 4 5 4 4 4
2 1 2 3 4 5 5 5 5 5 5 5 5 6 6 6 6 6 6 6 6 6 6 7 8 9 10 12 13 14 14 11 8 6 6 8 9 11 11 10 9 10 10 8 9 10 9 9 8 7 5 3 2 2 3 3 3 3 3 2 3 4 4 5 5 6 6 6 6 5 5 5 5 4 4 4 4 3 4 5 5 5 5 5 5 5 5
2 1 2 4 5 5 5 4 3 3 4 5 6 6 6 6 6 5 5 6 6 7 7 7 8 9 11 12 12 12 13 11 7 6 9 11 10 10 9 9 9 10 9 7 6 7 8 8 8 7 5 4 3 3 3 3 3 4 4 4 4 4 5 5 6 6 5 5 5 5 5 5 5 4 4 4 4 4 4 5 5 5 5 5 5 5 5
2 2 2 3 2 2 3 2 2 3 4 4 5 5 6 5 5 5 5 6 7 7 7 8 8 9 10 11 9 10 13 12 7 5 10 14 12 10 9 9 9 9 10 8 6 5 6 7 7 6 5 4 3 3 3 4 5 5 5 5 6 6 7 7 8 7 6 5 5 5 5 5 5 5 4 4 4 4 5 5 5 5 6 6 6 6 6
2 2 2 2 2 1 1 1 1 2 3 4 5 6 6 6 5 5 6 7 8 8 8 9 9 8 8 8 7 8 10 9 5 5 10 14 13 10 9 9 9 10 11 9 7 7 7 7 7 7 6 5 4 4 4 5 5 6 6 7 7 7 8 9 8 7 7 6 5 5 5 5 5 5 5 5 4 4 4 5 5 6 7 7 6 6 6
5 4 4 3 2 2 1 1 0 1 3 4 5 6 6 5 4 5 6 8 8 8 9 9 8 6 6 7 6 7 7 7 5 7 11 13 12 11 11 11 11 11 11 10 8 8 8 7 7 8 8 7 5 4 5 6 6 6 7 7 8 8 8 8 8 8 8 8 7 6 6 6 6 6 6 5 5 5 5 5 5 5 6 6 6 6 6
Wind_Direction
101 80 87 228 165 118 135 156 163 165 167 180 194 194 149 156 209 270 145 151 221 254 266 272 272 249 247 251 233 221 209 195 182 172 176 181 180 181 182 182 181 180 181 180 185 194 200 203 208 215 224 229 234 240 242 242 240 239 245 252 255 257 256 257 264 270 276 284 290 294 296 299 303 305 306 309 310 309 308 308 309 312 312 309 306 305 305
105 97 356 157 123 110 118 139 156 165 172 186 202 189 164 191 243 291 128 203 242 251 255 268 277 271 259 269 255 219 206 191 180 180 185 185 182 182 183 183 185 185 183 182 188 194 198 203 207 214 223 228 232 237 239 239 237 237 242 248 252 253 254 258 265 271 277 285 292 297 301 305 307 307 307 308 307 306 308 311 315 316 315 314 314 313 312
102 65 57 81 89 109 127 133 143 151 149 167 201 206 170 201 263 278 244 250 262 250 234 256 274 293 262 255 236 219 207 189 184 186 188 185 183 185 185 184 184 183 181 184 191 196 201 205 210 216 221 226 231 234 235 236 236 237 240 244 248 250 253 260 266 270 276 285 293 297 302 306 310 312 313 310 306 305 310 316 320 319 318 318 318 318 317
146 51 67 93 84 94 129 184 199 181 165 175 196 188 176 194 223 234 232 260 273 260 204 250 264 252 246 245 229 213 202 191 190 190 188 186 186 186 185 182 180 181 185 190 195 200 204 207 212 219 221 225 229 231 233 236 238 238 238 242 247 249 254 262 267 270 276 285 295 299 301 303 310 318 320 315 310 309 313 320 322 320 319 320 320 324 326
148 88 107 121 121 157 195 228 210 189 182 181 160 163 205 210 204 214 239 260 278 300 220 258 262 243 247 252 235 210 199 195 196 196 191 188 188 187 184 183 184 185 188 193 198 202 207 210 216 222 223 224 227 229 233 238 239 238 238 243 248 250 255 261 265 271 277 284 295 301 300 301 310 321 323 319 316 315 316 320 321 318 317 318 322 328 330
153 124 118 134 189 214 195 88 193 181 182 186 181 187 207 205 200 222 267 276 274 260 241 248 265 270 268 271 269 247 213 199 200 199 194 190 188 187 188 187 187 186 189 196 201 207 212 216 221 224 225 226 228 230 233 237 238 238 240 244 248 252 256 261 265 271 276 282 294 301 301 305 315 322 322 318 317 319 319 319 319 315 312 313 320 326 330
128 122 145 187 214 222 104 56 32 76 118 165 184 234 235 218 219 231 257 263 256 250 244 242 258 274 276 273 272 255 223 204 197 195 192 190 187 187 190 190 186 186 190 195 202 211 217 220 223 224 225 226 229 230 232 235 236 237 242 246 250 253 257 261 266 271 275 282 291 298 303 310 318 321 320 317 317 320 320 319 318 315 310 309 315 321 327
125 149 183 206 240 305 325 233 157 112 81 103 162 272 257 232 224 215 230 251 253 251 250 232 227 249 269 274 261 240 219 203 197 196 192 190 191 191 190 186 185 190 197 203 209 215 219 221 222 224 225 225 227 228 230 234 235 237 243 248 253 255 257 262 268 273 278 284 288 293 302 309 313 316 317 317 319 320 320 322 323 319 313 312 314 316 320
157 173 192 226 322 286 218 199 162 165 175 150 183 260 259 226 207 191 211 245 250 241 244 215 189 192 232 270 245 213 203 196 196 202 196 191 192 191 188 187 190 198 204 210 214 218 221 223 223 224 224 224 224 225 228 233 236 238 243 249 254 256 258 262 268 274 280 283 283 287 296 301 303 309 315 316 317 320 324 326 327 323 316 313 312 312 315
151 179 195 225 252 237 212 219 207 175 201 143 150 237 260 230 206 196 210 238 238 194 193 181 164 161 194 245 217 174 182 188 191 198 197 191 188 184 184 187 195 205 211 216 220 223 225 226 227 225 224 223 222 222 226 233 236 237 242 250 256 259 263 268 271 274 277 278 277 280 287 292 295 301 310 314 314 319 325 327 327 325 321 316 312 310 311
156 193 207 214 228 229 222 234 207 87 145 134 128 244 265 236 204 195 202 223 218 191 182 167 162 179 205 209 145 145 173 182 183 185 185 184 187 188 191 195 201 209 215 220 224 226 227 229 230 226 223 222 219 219 226 233 234 235 243 252 259 264 273 280 279 274 271 270 269 272 278 285 288 295 306 310 310 316 323 325 327 329 327 324 320 316 314
161 193 211 223 236 238 250 263 44 89 175 155 157 256 270 228 192 184 188 208 205 180 168 164 178 209 211 177 93 138 166 172 177 181 181 182 185 188 197 206 211 215 219 221 223 225 229 232 231 225 221 219 216 218 226 232 235 239 247 255 264 272 282 287 280 269 263 263 265 268 272 279 284 292 302 304 303 314 319 319 323 328 329 328 326 322 322
163 196 216 243 249 243 271 289 107 133 171 179 209 247 274 178 193 186 191 203 186 165 168 176 187 217 225 75 80 139 161 167 176 185 186 187 190 192 201 212 217 221 224 226 228 231 234 234 231 223 217 214 215 219 225 232 239 245 250 258 268 278 286 287 279 269 261 259 261 264 267 272 278 286 294 295 300 310 313 313 320 326 329 327 326 327 330
147 193 224 264 273 268 50 87 109 144 197 209 223 249 315 199 201 193 200 203 177 167 176 177 172 164 136 102 108 147 166 169 169 177 179 183 196 205 210 217 221 222 224 229 234 238 238 235 229 220 214 213 216 219 224 234 243 247 252 260 271 280 284 282 281 275 267 261 260 261 263 266 271 278 285 291 302 308 306 309 319 324 328 329 328 329 333
122 148 189 233 274 5 121 127 124 177 226 238 311 313 272 242 206 193 202 201 184 177 173 166 172 167 142 117 119 152 173 170 163 174 181 188 200 207 210 218 221 219 221 229 234 235 231 226 224 217 213 215 218 220 227 239 246 249 254 260 268 274 273 272 277 279 275 269 263 260 259 261 264 270 280 293 303 304 303 311 320 322 326 331 328 325 329
181 175 182 196 118 89 156 179 190 222 227 18 19 317 268 265 220 203 205 199 193 186 169 162 172 176 158 143 143 156 174 176 170 177 190 202 212 215 219 226 225 221 230 238 239 238 235 230 227 222 218 218 219 223 234 243 247 249 253 256 258 262 265 268 273 277 282 279 268 256 250 254 256 259 275 291 296 299 304 314 320 320 322 327 327 324 325
214 228 246 295 343 308 256 256 263 274 285 311 315 274 276 278 240 215 212 197 191 189 171 160 165 176 169 155 146 148 159 169 171 176 194 211 228 241 250 264 265 246 251 260 263 259 254 246 237 229 225 220 220 229 239 245 246 247 249 247 247 257 267 273 275 278 287 287 269 246 235 238 240 247 267 283 288 296 307 315 318 319 321 323 324 324 325
289 276 259 286 299 283 268 255 251 268 280 282 262 247 256 265 242 214 217 198 179 177 170 161 163 170 158 145 140 140 137 140 152 167 196 218 245 265 265 269 272 264 262 265 262 255 251 247 240 234 230 224 223 231 241 244 244 245 242 239 247 263 273 278 282 287 293 287 262 234 230 232 231 241 262 272 279 292 302 310 315 317 320 323 325 327 329
289 260 178 327 308 292 287 284 272 268 266 256 244 238 241 251 237 210 212 183 161 163 169 170 164 149 143 145 141 136 131 126 135 157 188 197 226 253 259 264 266 256 248 251 249 243 239 238 235 231 229 228 229 235 241 243 242 243 243 246 258 268 271 280 293 303 301 284 245 215 218 226 227 238 254 262 272 288 295 307 315 317 321 329 334 334 334
278 253 14 342 313 278 261 273 273 270 266 254 249 243 210 167 149 162 155 145 153 160 169 169 155 142 151 155 140 135 143 129 128 165 210 219 240 264 270 271 262 245 237 241 242 239 234 232 230 227 227 231 233 236 236 235 235 241 248 254 256 258 267 287 309 319 310 281 235 208 210 221 229 238 248 249 240 230 270 304 318 326 332 339 342 341 339
269 227 11 354 337 305 287 306 292 273 271 263 233 167 150 138 128 120 115 129 155 164 165 163 153 148 158 159 145 148 154 148 169 200 213 238 257 270 272 267 256 245 244 249 249 245 235 227 226 226 226 227 226 222 220 222 228 236 242 244 244 248 270 296 318 327 311 267 228 209 209 219 229 234 234 210 163 168 179 217 327 353 2 3 3 359 352
290 44 23 4 344 305 302 315 321 323 306 282 207 153 155 153 142 131 123 120 135 161 165 168 158 149 153 164 161 159 160 166 186 194 189 236 259 268 272 271 264 260 263 267 262 247 230 228 228 222 221 224 218 212 215 220 225 228 226 226 230 237 255 289 315 328 305 250 230 220 218 221 221 211 184 151 162 165 143 107 62 39 40 35 30 29 29
280 335 2 4 298 276 288 305 322 336 324 302 296 244 175 164 155 146 137 135 141 155 173 187 166 151 157 166 164 161 165 167 163 155 158 245 284 300 305 306 302 291 283 278 266 247 235 238 232 220 220 221 211 208 214 217 217 219 218 215 219 224 232 268 288 301 286 253 242 235 233 231 217 172 128 114 118 123 115 101 80 61 58 52 44 42 45
280 324 348 343 289 286 294 303 308 307 286 291 310 317 324 238 162 154 145 144 148 154 165 181 146 140 149 152 157 163 157 137 124 132 131 106 75 71 62 42 9 329 303 286 273 254 231 222 213 206 207 207 204 206 210 212 212 214 211 206 214 243 264 268 267 262 249 245 245 243 242 237 217 184 157 133 122 118 109 98 89 81 74 67 57 49 46
291 319 327 298 263 271 285 292 290 276 237 243 278 287 282 248 216 178 161 161 158 162 168 161 134 125 139 140 150 161 132 115 125 134 124 111 102 93 87 89 98 116 149 174 199 215 217 212 207 204 204 207 212 214 217 221 225 227 232 237 239 247 253 249 241 230 223 227 227 225 224 213 192 190 183 154 141 141 129 106 90 84 78 72 69 63 52
281 300 304 291 274 271 290 302 300 305 323 309 279 254 216 207 211 204 194 198 196 186 174 158 143 142 146 146 151 148 125 118 123 118 108 108 106 95 92 103 116 135 156 166 175 188 202 208 208 206 208 214 223 226 229 237 241 241 250 254 251 251 250 242 232 231 227 218 205 186 176 171 170 176 182 182 182 178 164 143 118 95 70 53 54 59 54
288 295 302 302 301 303 317 320 315 320 327 320 296 283 257 200 184 186 189 181 177 174 161 152 146 140 136 136 139 132 122 121 116 98 86 93 93 82 83 96 106 124 139 144 159 173 184 197 203 207 215 224 232 223 221 248 258 254 255 256 256 260 259 247 247 249 233 211 195 180 169 169 174 174 172 173 180 182 174 167 165 156 69 27 29 40 46
284 272 261 277 290 299 308 313 311 308 306 299 288 288 285 247 184 184 193 183 167 158 154 153 152 146 139 142 143 130 115 107 99 83 74 78 80 76 83 95 105 125 136 137 155 163 174 187 191 195 210 216 204 181 183 240 276 266 256 254 258 266 268 267 269 253 215 193 185 178 169 165 165 162 154 148 145 143 135 123 120 109 47 28 20 21 31
271 263 245 248 263 277 291 300 298 294 293 288 274 257 251 238 216 206 201 186 171 167 164 159 157 152 145 140 134 124 111 99 87 78 73 74 75 79 92 106 118 130 139 147 151 156 171 183 185 191 204 210 203 205 229 269 282 273 267 272 288 297 279 259 245 212 187 178 177 172 160 150 147 145 140 133 126 118 109 98 88 70 45 33 25 16 16
278 272 263 263 269 275 281 283 283 287 289 285 270 246 231 227 225 216 193 177 182 182 168 159 160 156 145 133 124 116 109 99 88 80 75 73 76 88 104 136 166 158 134 124 128 144 163 171 172 182 203 222 239 258 281 298 300 299 297 296 302 297 256 212 196 186 169 152 147 146 139 132 130 129 125 120 115 111 105 93 78 65 48 37 33 27 18
289 288 283 277 274 275 277 277 276 278 279 273 263 251 234 223 226 220 192 181 193 186 167 166 171 161 141 128 119 110 102 94 89 86 81 73 71 80 90 110 155 141 113 103 106 125 138 133 117 102 333 296 288 290 297 300 307 318 323 319 320 318 184 164 162 160 149 135 131 131 128 125 125 123 117 113 111 111 108 95 77 63 53 48 41 32 21
291 292 290 285 276 269 268 266 265 268 269 259 246 240 228 217 219 216 199 185 184 176 169 175 173 148 126 120 114 108 105 102 96 90 83 75 70 75 83 89 95 102 106 107 101 88 73 53 32 8 345 332 325 322 314 299 296 309 321 342 56 98 118 127 129 131 130 128 127 124 120 118 117 114 111 111 114 114 108 96 81 67 63 63 53 39 33
290 291 289 288 284 277 270 263 258 261 262 255 243 239 233 227 228 221 194 171 164 160 157 152 130 112 115 118 116 116 117 111 98 86 80 78 78 84 91 98 101 102 100 94 78 57 40 22 4 346 337 335 331 323 309 287 274 272 241 132 112 110 112 115 116 115 112 110 110 111 111 111 108 106 107 111 115 115 108 100 90 78 76 80 71 56 54
277 275 277 279 281 276 271 267 261 259 260 254 245 241 239 237 235 216 172 154 148 141 135 128 119 115 115 115 118 123 122 113 100 94 93 92 96 101 102 104 104 98 89 76 62 46 31 17 359 347 348 352 347 335 310 246 205 169 144 129 117 111 109 110 111 109 105 105 106 107 107 105 102 104 110 114 114 113 110 105 98 91 90 92 85 70 67
274 273 272 272 269 266 266 265 261 260 262 256 244 234 226 216 200 173 156 148 140 134 132 130 125 117 112 111 113 111 103 101 109 115 115 114 116 113 107 102 97 90 81 66 46 30 22 17 9 4 6 10 16 30 74 128 132 122 120 121 118 115 114 114 112 110 109 109 107 104 102 103 104 108 113 113 111 112 113 108 103 101 100 97 90 78 69
283 279 275 272 268 265 264 261 257 258 260 255 237 210 189 180 172 163 155 145 133 129 130 128 118 107 102 103 105 100 99 107 118 123 126 128 125 116 107 98 91 87 79 57 35 24 25 27 21 18 21 26 39 63 90 114 121 120 121 120 116 114 115 113 110 107 107 106 106 105 105 107 108 108 108 108 108 110 111 111 109 107 102 98 95 87 75
290 285 280 277 272 267 262 257 251 246 239 218 192 176 173 174 170 157 143 132 128 129 129 122 111 104 101 101 102 103 107 117 125 127 132 135 130 118 106 96 84 75 70 51 32 29 38 40 29 28 37 46 58 77 96 114 127 134 135 129 121 116 114 111 109 106 105 105 108 111 112 111 108 104 104 106 109 112 114 115 113 109 103 100 99 95 85
294 293 288 282 277 271 264 257 242 221 200 188 184 181 176 170 159 140 120 108 108 112 108 100 98 103 109 110 109 110 116 127 133 135 137 139 131 117 101 86 68 56 56 51 41 43 53 56 52 57 65 70 76 86 100 113 121 125 126 123 119 116 114 111 109 107 106 106 108 110 110 110 108 107 108 108 109 112 115 115 114 112 109 106 102 97 93
296 300 298 296 290 277 262 248 226 204 195 195 192 179 158 134 113 99 92 88 87 88 90 95 105 119 122 119 117 121 130 138 141 141 139 135 126 112 96 82 75 74 77 79 75 71 75 84 85 84 86 86 86 94 108 116 117 115 113 113 112 112 111 109 106 105 104 105 106 106 106 108 109 111 113 112 110 109 110 111 114 114 110 104 100 96 93
305 308 311 319 328 339 74 87 75 62 46 33 40 95 109 106 104 100 95 99 111 115 115 121 134 136 130 127 130 136 142 148 150 148 144 140 133 122 109 96 89 88 89 92 93 94 99 103 100 97 96 94 93 100 111 114 110 105 103 103 105 108 109 108 108 110 110 110 111 110 109 109 111 112 114 114 112 110 110 112 113 113 109 105 101 97 94
314 314 325 26 64 78 87 88 83 75 65 57 55 57 74 107 120 124 125 129 134 137 141 148 148 139 136 139 142 142 146 151 152 151 152 151 144 133 121 109 102 101 102 104 107 110 111 109 106 104 102 100 99 99 100 98 95 94 98 101 104 110 113 112 111 113 114 115 115 113 110 110 110 110 112 114 114 114 116 118 116 112 109 107 103 100 96
337 339 23 89 102 104 104 100 95 90 86 86 88 88 68 64 88 103 115 123 130 137 145 145 138 135 138 142 142 141 143 146 148 149 153 155 150 142 133 123 118 119 122 121 117 112 105 102 102 102 100 98 95 88 84 85 89 93 98 103 106 110 114 115 114 114 116 116 115 112 111 113 113 111 112 114 114 116 120 124 122 118 114 111 108 105 100
348 5 43 65 83 97 102 101 100 98 97 100 106 113 112 95 96 108 124 129 132 142 145 136 132 136 141 144 145 145 144 144 145 145 144 139 133 131 131 129 128 131 132 126 117 109 102 100 100 100 95 89 81 71 67 72 78 81 90 103 110 112 114 116 117 118 118 118 117 116 115 115 115 115 116 116 116 119 125 128 127 126 121 118 116 114 109
355 19 50 62 67 70 73 83 94 99 100 104 111 120 130 132 139 154 157 141 138 145 146 142 144 148 150 151 153 153 152 152 152 150 146 138 129 126 129 130 131 134 133 126 116 110 109 109 110 108 99 85 72 62 58 60 61 66 82 103 113 117 120 122 123 124 125 124 123 123 121 119 118 120 122 122 123 126 131 132 132 132 131 130 130 127 123
54 69 82 86 84 79 72 70 84 96 99 104 112 123 139 149 156 165 161 147 144 149 151 152 154 155 155 158 159 156 154 157 159 158 155 153 151 152 151 145 139 138 137 130 121 117 120 124 126 123 113 95 77 67 65 64 61 59 76 109 123 126 128 129 130 132 133 131 130 129 128 128 128 128 129 133 138 139 138 139 141 143 144 147 150 148 144
113 95 91 88 88 92 97 104 111 112 110 109 111 116 125 139 153 158 154 148 148 152 157 161 163 161 160 161 156 149 150 161 169 171 171 166 160 162 163 159 153 152 150 140 130 130 136 141 141 137 126 109 91 78 77 83 81 72 82 119 136 141 141 140 138 140 140 140 141 141 140 140 139 139 140 144 147 147 149 152 156 161 166 167 166 165 166
115 107 111 110 97 94 103 116 120 117 117 118 120 122 130 143 152 151 147 148 151 152 155 161 165 166 166 165 161 157 160 168 176 182 185 170 160 161 163 164 164 167 167 159 153 155 158 161 163 164 156 135 111 96 97 105 105 100 107 125 138 147 150 148 147 150 151 149 150 152 151 149 150 152 155 157 159 162 169 174 175 177 181 181 178 177 176
115 116 122 120 113 110 122 137 139 130 125 121 121 129 139 145 145 144 146 150 151 151 155 162 168 172 176 177 174 172 172 174 177 182 182 174 164 162 165 169 176 182 183 176 171 175 180 181 178 174 167 157 140 125 126 132 132 130 133 137 143 149 152 152 152 155 156 157 161 164 165 165 168 170 172 177 182 187 188 190 191 191 190 187 183 180 177
120 132 125 127 136 148 155 155 144 123 113 112 120 133 142 143 141 142 149 154 157 160 167 172 177 182 185 186 186 186 186 187 186 181 178 175 169 166 169 174 183 190 192 185 179 187 197 198 191 182 174 172 170 161 156 159 162 159 157 157 156 155 156 157 157 158 160 165 172 177 177 178 182 186 188 191 194 193 192 193 194 191 186 182 178 176 176
134 148 136 130 141 147 135 111 90 104 117 126 138 147 151 154 158 162 165 169 173 178 181 181 183 188 190 190 191 193 194 195 199 195 186 183 178 173 172 174 180 190 197 196 187 182 190 198 203 204 201 196 193 189 181 178 180 179 178 174 171 169 170 171 171 171 172 173 177 184 187 186 188 192 195 196 194 192 193 193 189 185 185 187 186 185 185
75 65 65 61 55 58 53 18 25 119 134 144 155 161 165 173 180 180 179 182 185 187 187 185 184 186 187 186 184 185 188 191 196 194 188 185 182 179 180 183 188 199 207 207 194 178 176 183 198 213 219 214 206 205 205 201 195 193 192 190 187 185 184 183 184 186 188 189 189 189 191 192 194 197 200 200 197 194 192 190 188 189 193 196 195 194 195
58 56 56 57 60 69 63 8 6 152 159 162 165 168 175 181 182 181 187 192 195 195 192 188 182 177 178 179 175 173 176 181 181 180 181 182 183 186 191 195 201 209 214 213 206 197 192 190 199 216 226 222 213 212 215 212 207 204 204 203 201 199 196 196 196 197 199 201 203 203 202 203 204 205 206 205 201 197 198 200 199 200 203 204 202 202 203